Regional Weather Roundup
Issued by NWS Sioux Falls, SD

Home | Current Version | Previous Version | Graphics & Text | Print | Product List | Glossary Off
Versions: 1 2 3 4 5 6 7 8 9 10 11 12 13 14 15 16 17 18 19 20 21 22 23 24 25 26 27 28 29 30 31 32 33 34 35 36 37 38 39 40 41 42 43 44 45 46 47 48 49 50

000
ASUS43 KFSD 221202
RWRFSD

WEATHER ROUNDUP FOR SE SOUTH DAKOTA/SW MINNESOTA/NW IOWA
NATIONAL WEATHER SERVICE SIOUX FALLS SD
600 AM CST WED NOV 22 2017

NOTE: "FAIR" INDICATES FEW OR NO CLOUDS BELOW 12,000 FEET WITH NO
SIGNIFICANT WEATHER AND OR OBSTRUCTIONS TO VISIBILITY.


SDZ038>040-050-052>070-221300-
SOUTHEAST SOUTH DAKOTA

CITY           SKY/WX    TMP DP  RH WIND       PRES   REMARKS
BROOKINGS      CLOUDY    11   7  84 S8        30.26F WCI  -1
CHAMBERLAIN    CLOUDY    19  16  86 SE8       30.18F WCI   9
6HR MIN TEMP:  12; 6HR MAX TEMP:  19;

HURON          CLOUDY    13   8  81 S8        30.24F WCI   2
6HR MIN TEMP:   8; 6HR MAX TEMP:  15;

MADISON        FAIR      10   9  92 S6        30.25F WCI   1
MITCHELL       CLOUDY    13   9  84 S7        30.27F WCI   3
6HR MIN TEMP:  12; 6HR MAX TEMP:  16;

SIOUX FALLS    CLOUDY    14   8  77 CALM      30.29F
6HR MIN TEMP:  11; 6HR MAX TEMP:  15;

WINNER         FAIR      29  17  61 S13       30.12F WCI  19
YANKTON        CLOUDY    12   8  84 SE5       30.31F WCI   4
$$

MNZ071-072-080-081-089-090-097-098-221300-
SOUTHWEST MINNESOTA

CITY           SKY/WX    TMP DP  RH WIND       PRES   REMARKS
FAIRMONT       CLOUDY    11   8  88 SW3       30.33F
JACKSON        CLOUDY    10   9  92 CALM      30.30F
MARSHALL       CLOUDY    11   6  81 S7        30.30F WCI   0
6HR MIN TEMP:   9; 6HR MAX TEMP:  13;

MONTEVIDEO     CLOUDY     9   7  92 CALM      30.31R
PIPESTONE      CLOUDY     9   3  78 S5        30.26F WCI   0
REDWOOD FALLS  CLOUDY    10   5  80 SW6       30.31F WCI   0
WINDOM           N/A     12   0  57 S5        30.30S WCI   4
WORTHINGTON    CLOUDY    11   6  81 S7        30.29F WCI   0
$$

IAZ001>003-012>014-020>022-031-032-NEZ013-014-SDZ071-221300-
NORTHWEST IOWA

CITY           SKY/WX    TMP DP  RH WIND       PRES   REMARKS
CHEROKEE       CLOUDY    10   9  92 CALM      30.34F
DENISON        CLOUDY    12  10  92 CALM      30.37F
ESTHERVILLE    CLOUDY     9   6  88 SW6       30.32F WCI  -1
LE MARS        CLOUDY    10   7  85 S5        30.35S WCI   2
ORANGE CITY    CLOUDY    12   9  85 CALM      30.31F
SHELDON        CLOUDY     7   3  85 SE5       30.30F WCI  -2
SIOUX CITY     CLOUDY    10   6  84 E5        30.37F WCI   2
6HR MIN TEMP:   9; 6HR MAX TEMP:  16;

SPENCER        CLOUDY     7   3  84 SW3       30.33F
6HR MIN TEMP:   7; 6HR MAX TEMP:  12;

STORM LAKE     CLOUDY    10   7  85 SW5       30.33F WCI   2
$$

ABBREVIATIONS USED IN REMARKS
   TC - TEMPERATURE IN CELSIUS
  WCI - WIND CHILL INDEX
   HX - HEAT INDEX
  VSB - VISIBILITY




USA.gov is the U.S. government's official web portal to all federal, state and local government web resources and services.